Home   Weather   Honolulu   Past weeks
Flag for USA

Past Weather in Honolulu, Hawaii, USA — Yesterday and Last 2 Weeks

Now
81 °F

Scattered clouds.


Feels Like: 83 °F
Forecast: 82 / 72 °F
Wind: 16 mph from Northeast

Location: Honolulu International Airport

Current Time: Apr 19, 2019 at 7:02:32 pm

Latest Report: Apr 19, 2019 at 5:53 pm


Visibility: 10 mi

Pressure: 30.08 "Hg

Humidity: 56%

Dew Point: 64 °F

Location of HonoluluLocation

Past Weather in Honolulu — Graph

°F

Honolulu Temperature Yesterday

Maximum temperature yesterday: 83 °F (at 2:53 pm)
Minimum temperature yesterday: 68 °F (at 4:53 am)
Average temperature yesterday: 76 °F

High & Low Weather Summary for the Past Weeks

 TemperatureHumidityPressure
High87 °F (Apr 9, 12:53 pm)100% (Apr 17, 1:53 am)30.16 "Hg (Apr 17, 1:53 am)
Low65 °F (Apr 6, 5:53 am)40% (Apr 8, 2:53 pm)29.96 "Hg (Apr 6, 3:53 pm)
Average77 °F64%30.08 "Hg
* Reported Apr 4 5:53 pm — Apr 19 5:53 pm, Honolulu. Weather by CustomWeather, © 2019

Note: Actual official high and low records may vary slightly from our data, if they occured in-between our weather recording intervals... More about our weather records

Advertising

Honolulu Weather History for the Previous 24 Hours

Scroll right to see more
 ConditionsComfort  
Time TempWeatherWind HumidityBarometerVisibility
5:53 pm
Fri, Apr 19
81 °FScattered clouds.16 mph56%30.08 "Hg10 mi
4:53 pm83 °FScattered clouds.20 mph53%30.05 "Hg10 mi
3:53 pm84 °FScattered clouds.18 mph49%30.06 "Hg10 mi
2:53 pm85 °FScattered clouds.16 mph46%30.06 "Hg10 mi
1:53 pm86 °FScattered clouds.14 mph45%30.08 "Hg10 mi
12:53 pm85 °FScattered clouds.15 mph45%30.10 "Hg10 mi
11:53 am83 °FScattered clouds.18 mph50%30.11 "Hg10 mi
10:53 am83 °FScattered clouds.16 mph48%30.12 "Hg10 mi
9:53 am80 °FScattered clouds.17 mph56%30.12 "Hg10 mi
8:53 am77 °FScattered clouds.14 mph62%30.12 "Hg10 mi
7:53 am75 °FScattered clouds.13 mph69%30.11 "Hg10 mi
6:53 am73 °FScattered clouds.15 mph74%30.08 "Hg10 mi
5:53 am73 °FPassing clouds.10 mph74%30.06 "Hg10 mi
4:53 am73 °FPassing clouds.9 mph74%30.05 "Hg10 mi
3:53 am73 °FPassing clouds.10 mph74%30.05 "Hg10 mi
2:53 am74 °FPassing clouds.12 mph71%30.06 "Hg10 mi
1:53 am73 °FPassing clouds.12 mph71%30.08 "Hg10 mi
12:53 am74 °FPassing clouds.10 mph71%30.09 "Hg10 mi
11:53 pm
Thu, Apr 18
74 °FPassing clouds.14 mph71%30.10 "Hg10 mi
10:53 pm74 °FPassing clouds.8 mph71%30.11 "Hg10 mi
9:53 pm76 °FPassing clouds.13 mph69%30.11 "Hg10 mi
8:53 pm76 °FPassing clouds.10 mph69%30.09 "Hg10 mi
7:53 pm77 °FPassing clouds.9 mph64%30.07 "Hg10 mi
Weather by CustomWeather, © 2019

See weather overview